Weather History for Gustavus, AK

Change the Weather History Date:

Monday, October 6, 2014

  Actual Average Record
Temperature  
Mean Temperature 45 °F -  
Max Temperature 48 °F 51 °F 57 °F (1953)
Min Temperature 42 °F 38 °F 22 °F (1985)
Degree Days  
Heating Degree Days 20    
Moisture  
Dew Point -    
Average Humidity    
Maximum Humidity    
Minimum Humidity    
Precipitation  
Precipitation 0.00 in - - ()
Sea Level Pressure  
Sea Level Pressure 29.98 in    
Wind  
Wind Speed 8 mph (SE)    
Max Wind Speed 14 mph    
Max Gust Speed -    
Visibility 10 miles    
Events      
Averages and records for this station are not official NWS values.
T = Trace of Precipitation, MM = Missing Value Source: NWS Daily Summary

Daily Weather History Graph

Daily Weather History Graph

Search for Another Location

Airport:

Trip Planner

Search our weather history database for the weather conditions in past years. The results will help you decide how hot, cold, wet, or windy it might be!

Date:

Astronomy

Oct. 06, 2014 Rise Set
Actual Time 7:18 AM AKDT 6:21 PM AKDT
Civil Twilight 6:39 AM AKDT 7:01 PM AKDT
Nautical Twilight 5:53 AM AKDT 7:47 PM AKDT
Astronomical Twilight 5:05 AM AKDT 8:34 PM AKDT
Moon 5:39 PM AKDT (10/6) 4:50 AM AKDT (10/6)
Length of Visible Light 12h 22m
Length of Day
11h 02m
Waxing Gibbous, 96% of the Moon is Illuminated
Oct 6
Waxing Gibbous
Oct 8
Full
Oct 15
Last Quarter
Oct 23
New
Oct 30
First Quarter

Hourly Weather History & Observations

Time (AKDT) Temp. Windchill Dew Point Humidity Pressure Visibility Wind Dir Wind Speed Gust Speed Precip Events Conditions
12:13 AM 44.6 °F 40.2 °F - N/A% 29.82 in 10.0 mi East 8.1 mph - N/A   Overcast
1:32 AM 44.6 °F 39.2 °F - N/A% 29.85 in 10.0 mi SE 10.4 mph - N/A   Overcast
3:06 AM 46.4 °F 45.2 °F - N/A% 29.88 in 10.0 mi SSE 3.5 mph - N/A   Mostly Cloudy
4:58 AM 44.6 °F 39.2 °F - N/A% 29.91 in 10.0 mi ESE 10.4 mph - N/A   Partly Cloudy
6:03 AM 44.6 °F 40.7 °F - N/A% 29.92 in 10.0 mi ESE 6.9 mph - N/A   Overcast
7:04 AM 44.6 °F 39.7 °F - N/A% 29.93 in 10.0 mi SE 9.2 mph - N/A   Overcast
8:03 AM 44.6 °F 39.7 °F - N/A% 29.95 in 10.0 mi SSE 9.2 mph - N/A   Overcast
9:08 AM 46.4 °F 42.4 °F - N/A% 29.97 in 10.0 mi ESE 8.1 mph - N/A   Mostly Cloudy
10:06 AM 48.2 °F - - N/A% 29.98 in 10.0 mi ESE 13.8 mph - N/A   Scattered Clouds
11:14 AM 46.4 °F 41.9 °F - N/A% 30.00 in 10.0 mi SE 9.2 mph - N/A   Overcast
11:30 AM 48.2 °F - - N/A% 30.00 in 10.0 mi ESE 12.7 mph - N/A   Scattered Clouds
12:16 PM 48.2 °F - - N/A% 30.01 in 10.0 mi ESE 11.5 mph - N/A   Overcast
1:14 PM 46.4 °F 45.2 °F - N/A% 30.03 in 10.0 mi East 3.5 mph - N/A   Mostly Cloudy
2:12 PM 46.4 °F 42.4 °F - N/A% 30.03 in 10.0 mi SE 8.1 mph - N/A   Mostly Cloudy
3:11 PM 46.4 °F 42.9 °F - N/A% 30.02 in 10.0 mi ESE 6.9 mph - N/A   Mostly Cloudy
3:59 PM 46.4 °F 42.4 °F - N/A% 30.03 in 10.0 mi SSE 8.1 mph - N/A   Overcast
5:09 PM 46.4 °F 43.5 °F - N/A% 30.02 in 10.0 mi ESE 5.8 mph - N/A   Scattered Clouds
5:51 PM 44.6 °F 40.2 °F - N/A% 30.00 in 10.0 mi ESE 8.1 mph - N/A   Clear
6:55 PM 46.4 °F 44.3 °F - N/A% 30.02 in 10.0 mi SSW 4.6 mph - N/A   Mostly Cloudy
7:53 PM 44.6 °F 43.1 °F - N/A% 30.02 in 10.0 mi East 3.5 mph - N/A   Overcast
9:10 PM 44.6 °F 42.2 °F - N/A% 30.02 in 10.0 mi WSW 4.6 mph - N/A   Overcast
9:24 PM 44.6 °F 43.1 °F - N/A% 30.02 in 9.0 mi South 3.5 mph - N/A   Overcast
9:53 PM 42.8 °F - - N/A% 30.02 in 10.0 mi Calm Calm - N/A   Overcast
10:45 PM 42.8 °F - - N/A% 30.03 in 10.0 mi Calm Calm - N/A   Overcast